Location: Observatoire de Paris
(48.8363°N, 2.3365°E)
Time: 15:10:23
(UTC+01:00)

Vanguard 3 - Pass Details

Date: 02 August 2021
Orbit: 510 x 3260 km, 33.4° (Epoch: 23 September)

Event Time Altitude Azimuth Distance (km) Brightness Sun altitude
Rises 22:09:16 0° 266° (W) 6,498 12.3 -13.9°
Reaches altitude 10° 22:13:34 10° 260° (W) 5,745 11.9 -14.4°
Maximum altitude 22:30:18 42° 199° (SSW) 4,110 10.4 -16.1°
Enters shadow 22:42:41 21° 145° (SE) 5,052 10.5 -17.2°
